User: anonymous   Login
Location: Mentone
(34.5413°N, 85.5351°W)
Time: 20:37:56
(UTC-05:00)
Language:

SL-8 R/B - Orbit

View from above orbital plane
View from above orbital plane
View from above satellite
View from above satellite

Ground track
Ground track

The orbit data is extracted from the following two-line orbital elements,

1 33066U 08031G   15153.07051983 -.00000007  00000-0  31742-4 0  9997
2 33066 048.4451 359.6333 0007881 206.1104 292.9578 14.69230888373033
Epoch (UTC): 02 June 2015 01:41:32
Eccentricity: 0.0007881
inclination: 48.4451°
perigee height: 658 km
apogee height: 669 km
right ascension of ascending node: 359.6333°
argument of perigee: 206.1104°
revolutions per day: 14.69230888
mean anomaly at epoch: 292.9578°
orbit number at epoch: 37303

The dashed part of the orbit path shows where the satellite is in the earth's shadow,  

DLR